Wind_Speed
33 33 34 35 36 37 37 39 40 42 43 43 44 45 46 47 48 49 50 50 50 52 54 55 55 56 55 55 54 53 54 53 52 52 52 50 50 49 48 47 46 45 44
32 32 34 34 35 36 36 38 38 38 40 41 42 42 43 45 47 48 48 49 49 51 52 53 54 56 56 56 55 54 55 54 53 52 53 52 51 50 50 49 48 47 46
30 32 33 33 33 34 35 35 36 36 37 39 39 40 41 42 45 46 47 47 48 49 50 51 52 53 55 55 55 55 55 54 53 53 52 52 51 51 50 50 50 48 48
30 32 32 31 31 33 34 34 34 34 35 37 39 39 40 41 43 45 45 46 46 47 48 49 50 51 52 53 53 54 54 54 53 53 53 52 51 51 51 51 50 49 49
30 30 30 30 31 32 31 31 32 33 34 35 36 38 39 41 42 43 44 45 46 46 47 48 49 49 50 51 52 52 53 55 54 54 54 53 52 52 52 51 50 50 50
29 29 30 30 30 29 28 29 30 31 32 33 34 36 37 39 41 43 43 43 44 45 46 47 47 48 49 50 50 50 52 53 53 53 53 52 52 52 51 51 51 50 50
29 29 29 29 28 27 27 28 29 29 31 32 32 33 35 37 38 39 41 41 42 44 45 46 46 46 47 47 47 49 48 49 50 51 50 50 50 50 49 49 49 49 49
28 29 29 28 26 26 26 26 27 27 29 30 30 31 33 34 35 38 39 40 41 42 43 44 44 44 45 45 45 46 46 46 47 48 48 49 48 48 48 47 47 48 47
28 28 27 26 26 26 26 26 26 27 28 29 30 31 32 34 34 35 36 38 38 39 41 41 42 42 43 44 44 43 44 45 45 45 46 46 45 45 44 44 44 44 45
27 27 25 25 25 26 26 26 27 28 29 29 29 30 32 33 33 33 33 35 36 38 39 38 39 39 40 41 42 43 43 43 44 44 43 43 44 43 42 42 42 42 43
26 26 25 25 25 26 27 27 28 29 29 28 29 30 32 33 32 31 32 33 34 36 37 37 37 36 37 40 41 41 42 42 42 42 42 41 42 42 40 40 41 42 43
26 25 25 26 26 27 26 27 28 29 29 29 30 30 32 31 30 30 31 32 32 33 34 34 34 34 36 38 39 39 40 40 40 40 39 39 40 41 40 40 40 40 41
25 26 27 26 27 26 26 26 27 28 28 29 30 30 30 29 28 28 28 29 30 31 31 32 33 34 36 36 37 38 37 37 38 38 38 38 38 39 40 41 41 41 41
27 27 27 27 27 27 27 27 27 28 29 30 32 31 30 29 28 27 27 26 26 27 29 31 32 33 34 35 35 35 34 34 35 36 37 36 37 38 40 40 40 40 40
28 29 28 28 27 26 27 28 28 29 31 31 32 31 30 29 28 27 26 25 25 26 28 29 31 32 32 33 32 32 32 32 33 34 35 36 36 37 38 38 38 38 38
29 29 28 28 27 27 27 28 29 30 31 31 31 30 29 28 27 26 25 25 26 27 28 29 29 30 30 30 31 31 30 30 32 33 33 34 34 35 36 37 37 36 37
29 28 28 28 27 28 28 29 30 30 31 31 30 29 28 28 27 26 25 25 26 26 26 27 27 27 27 28 28 29 30 30 30 31 31 32 33 34 36 36 35 36 36
29 28 28 27 28 28 28 29 29 30 30 30 29 29 28 27 26 25 25 25 26 26 25 26 26 26 26 26 27 29 29 29 30 30 30 31 32 33 34 34 35 35 35
29 28 28 28 28 29 29 30 30 30 31 31 30 30 29 27 24 24 24 25 25 26 26 25 25 25 25 26 27 28 28 28 28 29 29 30 30 32 33 32 33 32 32
30 29 29 28 28 28 29 31 31 31 31 31 31 29 28 26 24 24 24 25 25 25 25 25 25 25 25 25 25 26 26 26 26 27 28 28 29 30 30 30 30 31 31
29 29 29 28 28 29 31 31 31 31 31 31 30 29 27 26 25 25 25 26 26 25 25 25 25 25 24 24 25 25 25 26 26 26 27 27 28 28 27 28 29 29 30
30 29 29 28 29 30 30 31 31 31 31 31 30 29 28 27 26 26 26 26 26 25 24 24 23 23 24 24 24 24 24 25 25 25 25 26 27 27 27 28 28 27 27
30 30 30 30 30 31 31 31 32 32 31 30 30 29 28 27 27 27 27 27 26 25 23 23 23 23 24 23 23 23 23 24 25 24 24 25 25 25 26 26 27 27 26
31 31 31 31 31 32 32 32 33 32 31 31 30 29 28 27 28 29 28 28 27 25 24 24 23 23 24 23 23 23 24 24 23 22 23 24 24 25 25 25 25 25 25
32 32 32 32 33 33 33 33 33 33 32 31 31 30 29 29 29 29 28 27 26 25 24 23 24 24 23 23 23 23 23 23 22 23 23 23 23 23 24 24 24 25 24
33 33 33 33 34 34 34 34 34 34 34 33 32 31 30 30 30 29 28 27 26 25 24 23 23 22 22 22 22 22 22 23 23 23 23 22 22 22 23 23 24 24 23
Wind_Direction
287 287 285 282 281 281 280 279 278 275 273 272 270 267 263 259 258 257 256 256 255 253 253 253 254 254 256 257 257 257 258 258 259 259 259 260 260 260 261 262 263 264 265
289 289 288 286 285 284 283 281 280 279 275 272 270 267 264 260 258 258 256 256 257 254 253 253 254 255 256 257 257 258 258 258 258 259 259 259 260 260 259 261 262 263 264
291 292 293 291 289 287 285 283 281 280 278 273 269 267 265 262 260 260 257 257 256 255 254 254 254 255 257 257 257 258 258 258 258 258 260 260 260 259 260 260 261 262 263
294 296 297 294 292 290 288 284 283 282 280 275 270 268 267 265 262 261 259 257 256 256 256 256 256 256 257 257 258 259 259 259 258 259 260 260 261 261 260 260 260 261 261
298 299 300 297 294 294 291 286 284 284 283 280 274 271 270 266 263 262 260 258 257 256 256 257 257 257 258 258 259 259 259 260 259 259 259 259 260 261 262 260 259 260 260
301 302 303 301 299 297 294 291 289 287 285 283 279 275 274 272 267 264 261 260 259 257 256 257 257 256 258 260 260 261 261 260 259 259 259 259 260 261 262 262 260 259 259
302 304 304 303 302 300 297 295 293 291 288 287 284 281 278 277 272 266 261 261 260 260 260 258 258 256 258 260 261 261 260 260 260 259 258 258 259 260 261 261 261 260 259
304 305 305 305 304 303 300 298 297 295 292 290 289 286 282 282 278 270 264 263 263 263 261 259 257 257 259 260 261 260 259 259 260 258 258 257 257 258 260 260 261 261 260
306 307 306 305 305 305 303 301 302 299 297 294 293 291 287 287 282 273 268 266 265 264 262 258 256 258 260 260 260 261 261 260 260 257 257 256 256 257 258 259 260 261 261
306 306 306 306 306 306 304 304 304 302 302 299 297 295 293 290 286 280 275 271 267 265 263 259 258 260 261 260 260 261 261 261 260 258 256 255 257 257 257 258 258 260 261
308 308 307 308 309 309 307 305 306 305 305 302 300 300 299 294 289 283 278 273 269 265 261 259 260 262 261 260 260 261 260 261 260 257 256 258 257 256 255 256 257 259 260
308 309 310 309 308 307 308 308 307 307 305 304 304 305 302 298 292 288 282 277 271 266 262 260 262 263 263 262 261 262 261 260 258 256 257 259 257 255 255 256 256 258 260
307 308 310 309 307 308 308 307 308 310 309 307 308 308 306 302 297 291 285 280 274 268 264 264 267 265 264 263 262 262 261 259 258 256 256 259 257 257 256 256 256 258 259
306 308 309 308 307 308 309 307 307 311 311 310 310 310 309 306 302 297 291 284 276 271 269 269 268 266 266 265 264 261 259 258 257 257 257 259 260 258 255 255 256 258 257
305 306 307 307 307 308 309 310 309 311 312 311 311 309 307 306 303 298 291 283 279 276 274 272 270 267 266 266 265 262 261 260 259 258 258 259 259 257 254 254 255 256 256
303 304 305 306 307 307 308 310 310 311 312 312 312 310 306 306 303 297 291 287 284 281 279 277 275 272 269 267 264 262 262 262 259 258 260 259 257 255 253 253 254 255 257
301 301 304 304 305 307 307 308 310 311 312 312 312 309 307 306 302 296 291 290 289 287 284 281 279 275 269 266 265 263 264 264 261 259 259 259 258 255 252 252 252 254 257
299 299 301 302 304 306 305 306 309 309 310 310 309 309 308 306 302 297 292 291 291 289 286 283 280 275 270 268 266 265 266 265 263 260 258 258 257 255 253 253 253 254 256
296 298 299 300 302 304 305 305 307 308 308 309 309 308 307 307 303 298 294 293 292 290 288 285 283 276 271 270 268 267 266 264 263 260 259 259 257 255 254 255 255 254 254
294 296 297 298 300 302 305 305 306 308 308 309 309 308 306 303 301 299 296 294 293 292 288 285 283 278 273 271 269 267 266 265 263 262 261 261 259 257 255 256 254 252 253
293 295 297 298 299 301 303 305 306 308 308 308 308 307 304 301 299 298 297 296 295 293 289 285 282 278 274 271 270 268 266 266 264 263 263 261 259 256 255 256 255 252 252
291 294 295 296 299 301 303 304 305 307 308 308 307 304 302 300 297 297 297 296 294 292 288 284 281 278 275 273 270 267 267 267 266 264 262 259 258 257 257 255 253 251 254
291 293 294 295 298 301 303 303 304 306 307 307 305 303 300 298 296 295 295 296 294 290 287 284 282 278 276 274 272 268 268 270 270 267 263 259 256 258 259 255 252 252 254
290 292 293 295 297 299 300 301 302 303 305 304 304 303 299 297 296 296 295 295 292 289 287 285 283 280 276 272 269 268 269 270 268 266 263 261 260 261 259 254 251 252 253
290 291 293 295 296 297 298 299 301 301 301 301 301 300 298 296 296 296 295 294 290 288 286 283 282 280 275 270 268 269 270 268 269 268 264 261 262 262 259 254 251 250 252
289 291 293 294 295 296 297 298 299 299 298 298 298 296 295 294 294 293 293 293 290 287 285 283 280 276 274 271 270 271 272 272 271 267 265 264 263 262 258 255 251 248 251
Height
5688 5686 5685 5683 5682 5680 5679 5677 5675 5674 5673 5671 5670 5670 5671 5673 5676 5679 5683 5685 5687 5691 5695 5699 5703 5706 5710 5713 5717 5720 5723 5726 5728 5730 5733 5736 5738 5740 5742 5745 5747 5749 5750
5679 5677 5675 5673 5671 5669 5667 5665 5664 5662 5660 5658 5658 5658 5658 5661 5663 5666 5669 5672 5674 5677 5681 5685 5688 5692 5695 5699 5702 5705 5708 5711 5714 5717 5719 5723 5727 5728 5730 5733 5735 5737 5739
5670 5668 5665 5663 5661 5659 5657 5654 5653 5651 5648 5646 5646 5646 5647 5649 5651 5654 5656 5659 5661 5664 5667 5671 5674 5678 5681 5685 5688 5691 5694 5698 5701 5703 5705 5708 5712 5715 5718 5720 5723 5725 5727
5662 5659 5656 5653 5651 5649 5646 5644 5642 5640 5638 5636 5635 5636 5636 5638 5640 5641 5643 5646 5648 5651 5654 5657 5660 5664 5667 5671 5674 5677 5680 5682 5686 5689 5692 5694 5697 5701 5705 5708 5710 5712 5715
5653 5650 5647 5644 5642 5639 5636 5634 5632 5630 5628 5625 5624 5624 5625 5626 5627 5628 5630 5633 5635 5638 5641 5644 5647 5651 5654 5657 5660 5663 5665 5668 5671 5675 5678 5680 5683 5686 5689 5694 5697 5699 5701
5646 5643 5640 5637 5634 5631 5628 5626 5624 5621 5619 5616 5615 5614 5613 5613 5614 5616 5617 5620 5623 5626 5629 5632 5635 5638 5641 5644 5647 5649 5651 5654 5657 5660 5663 5666 5669 5672 5674 5678 5682 5685 5689
5640 5637 5633 5630 5627 5624 5621 5618 5616 5613 5610 5608 5606 5604 5602 5602 5602 5603 5605 5607 5611 5614 5616 5619 5622 5624 5628 5630 5633 5635 5637 5640 5643 5645 5649 5652 5655 5658 5661 5663 5667 5670 5674
5634 5631 5627 5624 5621 5618 5615 5612 5609 5606 5603 5600 5597 5595 5593 5591 5591 5591 5594 5596 5599 5602 5604 5606 5609 5612 5615 5617 5620 5622 5625 5627 5629 5632 5635 5639 5642 5645 5648 5650 5653 5656 5660
5628 5625 5621 5618 5615 5613 5610 5606 5603 5600 5597 5593 5590 5587 5585 5582 5581 5581 5583 5584 5587 5589 5592 5594 5597 5600 5603 5605 5607 5610 5612 5614 5617 5619 5622 5626 5630 5632 5635 5638 5640 5643 5646
5623 5619 5616 5614 5611 5608 5605 5601 5598 5594 5591 5587 5584 5580 5577 5574 5572 5572 5572 5574 5576 5578 5580 5583 5586 5589 5591 5593 5596 5598 5600 5602 5605 5607 5610 5614 5618 5620 5623 5626 5629 5631 5634
5618 5615 5612 5610 5607 5603 5600 5596 5592 5588 5585 5581 5578 5574 5570 5567 5564 5563 5563 5564 5565 5567 5569 5573 5576 5578 5580 5583 5585 5587 5589 5591 5593 5596 5599 5603 5606 5608 5612 5615 5618 5620 5623
5614 5611 5608 5605 5602 5598 5594 5591 5587 5583 5580 5575 5571 5567 5563 5560 5557 5555 5554 5555 5556 5558 5561 5563 5566 5568 5570 5572 5574 5576 5578 5580 5582 5585 5588 5592 5594 5597 5601 5604 5607 5610 5612
5611 5608 5604 5600 5597 5593 5589 5586 5582 5579 5574 5570 5565 5561 5557 5554 5551 5549 5548 5547 5548 5550 5552 5555 5557 5559 5560 5562 5563 5565 5567 5570 5572 5575 5578 5581 5583 5586 5590 5594 5597 5600 5602
5607 5604 5600 5596 5592 5589 5585 5581 5578 5574 5569 5565 5560 5556 5552 5548 5545 5543 5542 5541 5542 5543 5545 5547 5548 5549 5551 5552 5554 5555 5557 5560 5563 5566 5568 5571 5573 5576 5579 5583 5586 5589 5591
5602 5599 5595 5591 5588 5584 5581 5577 5573 5569 5565 5560 5555 5551 5547 5543 5540 5538 5536 5536 5536 5537 5538 5539 5540 5541 5542 5543 5544 5546 5548 5551 5554 5556 5559 5561 5563 5566 5569 5572 5575 5578 5580
5597 5593 5590 5586 5583 5580 5576 5573 5569 5565 5560 5555 5551 5546 5542 5539 5536 5533 5532 5531 5530 5531 5531 5531 5532 5532 5533 5534 5536 5537 5540 5542 5545 5547 5549 5551 5553 5556 5558 5561 5564 5567 5570
5591 5588 5584 5581 5578 5575 5571 5568 5564 5560 5555 5550 5546 5542 5538 5534 5531 5529 5527 5525 5525 5524 5524 5524 5524 5525 5526 5527 5528 5529 5531 5534 5536 5538 5540 5542 5544 5546 5549 5551 5554 5557 5559
5585 5582 5579 5576 5573 5569 5566 5563 5559 5555 5551 5546 5542 5537 5533 5530 5526 5524 5522 5521 5520 5519 5518 5517 5517 5518 5518 5519 5521 5522 5524 5526 5528 5529 5531 5534 5535 5537 5539 5542 5545 5547 5550
5578 5576 5573 5570 5567 5564 5561 5557 5554 5550 5546 5541 5537 5532 5528 5525 5521 5519 5517 5515 5514 5512 5511 5511 5511 5511 5511 5512 5513 5514 5516 5518 5519 5521 5523 5525 5527 5528 5530 5533 5535 5538 5541
5572 5569 5567 5564 5561 5558 5555 5551 5548 5545 5540 5536 5532 5527 5523 5520 5517 5514 5512 5510 5508 5507 5506 5505 5504 5504 5505 5505 5506 5507 5508 5510 5511 5513 5514 5516 5518 5519 5521 5523 5526 5529 5531
5565 5563 5560 5557 5554 5551 5549 5545 5542 5538 5534 5530 5526 5522 5518 5514 5512 5509 5507 5505 5503 5501 5500 5499 5498 5498 5498 5498 5499 5499 5500 5502 5503 5505 5506 5508 5509 5510 5512 5514 5517 5520 5522
5558 5556 5553 5551 5548 5545 5542 5539 5535 5532 5528 5524 5521 5517 5513 5509 5506 5504 5501 5499 5497 5495 5494 5493 5493 5492 5491 5491 5492 5493 5494 5495 5496 5497 5498 5499 5501 5502 5504 5506 5509 5511 5513
5550 5548 5546 5543 5540 5538 5535 5532 5528 5525 5521 5518 5514 5511 5507 5504 5501 5498 5496 5493 5491 5489 5488 5487 5487 5486 5486 5486 5486 5487 5487 5488 5489 5490 5490 5491 5493 5494 5496 5498 5500 5503 5505
5542 5540 5538 5536 5533 5530 5527 5524 5521 5517 5514 5511 5507 5504 5501 5498 5495 5492 5489 5487 5485 5483 5482 5481 5480 5480 5480 5479 5480 5480 5481 5481 5482 5483 5483 5484 5485 5487 5489 5490 5492 5494 5497
5534 5532 5530 5528 5525 5522 5519 5516 5512 5509 5506 5503 5500 5497 5494 5491 5489 5486 5483 5480 5478 5476 5475 5474 5473 5473 5473 5473 5473 5473 5474 5474 5475 5475 5477 5478 5479 5480 5481 5483 5485 5487 5490
5525 5523 5521 5519 5516 5514 5511 5507 5504 5500 5498 5495 5492 5489 5486 5483 5481 5478 5476 5473 5471 5470 5468 5467 5466 5466 5466 5466 5466 5466 5466 5467 5467 5468 5470 5471 5472 5473 5475 5476 5478 5481 5483